Theta_e
331 330 328 325 325 322 321 320 319 322 322 319 319 318 317 317 313 313 312 313 313 314 315 316 317 318 319 320 322 325 325 322 321 321 321 324 328 326
328 324 322 320 318 317 317 317 317 319 319 319 320 318 316 315 313 312 313 310 311 310 311 312 313 314 315 316 317 318 318 318 317 318 318 319 320 323
320 319 318 317 317 317 316 316 316 316 317 317 315 316 315 314 313 310 311 310 312 311 308 309 312 313 314 314 315 316 318 318 316 317 316 317 318 318
317 317 316 316 315 315 315 315 318 318 317 318 318 317 317 314 314 313 313 311 312 310 308 308 308 308 310 311 313 314 315 316 318 317 318 317 318 317
318 319 319 319 318 317 317 317 317 317 317 317 317 315 313 313 312 311 312 311 311 310 310 309 307 307 308 309 310 313 314 315 315 317 318 318 319 317
315 316 317 317 318 318 317 316 316 315 315 314 314 313 313 312 310 311 311 310 310 309 308 308 308 308 309 309 309 309 311 314 316 316 316 317 316 317
313 313 313 312 312 313 314 314 314 313 313 312 312 311 311 310 309 309 309 308 308 308 309 308 309 309 308 312 311 309 308 312 314 314 316 317 316 316
311 312 310 307 306 303 303 303 304 306 307 308 307 308 308 307 308 308 308 307 308 307 309 308 309 309 310 312 311 308 310 309 311 313 314 316 316 315
307 308 308 308 308 307 306 306 305 304 304 306 307 307 307 307 307 307 307 307 308 307 308 308 308 309 310 311 311 307 307 310 310 309 312 315 316 315
306 306 307 306 303 305 306 306 305 305 304 303 304 304 305 305 305 306 306 306 306 307 308 309 308 309 309 311 310 307 309 310 311 310 313 315 315 315
304 303 304 304 303 303 304 304 304 304 303 302 302 302 302 303 303 304 306 306 307 306 307 308 308 307 309 310 311 308 308 309 309 311 312 313 314 315
303 304 302 302 303 302 304 304 303 302 303 303 304 304 305 305 304 304 305 305 305 306 305 307 307 307 308 309 311 311 310 309 308 308 310 311 311 311
303 303 303 301 301 302 302 303 300 301 304 304 305 305 305 305 305 305 305 305 306 306 305 305 306 306 307 308 308 307 308 309 310 307 308 310 312 312
304 304 303 301 301 301 301 301 300 303 304 305 305 304 303 303 303 302 303 304 304 303 304 304 304 306 307 307 307 307 307 309 308 307 307 307 306 307
305 303 301 301 301 302 300 300 301 303 304 304 304 303 302 302 302 303 303 303 303 304 303 303 303 304 305 305 305 306 306 307 308 307 307 306 307 306
303 304 303 302 302 302 302 301 302 303 302 303 303 303 303 303 303 303 303 303 303 304 305 304 304 304 305 306 305 306 306 306 307 306 306 306 305 305
303 304 304 303 303 302 302 301 302 301 302 301 302 303 303 303 303 303 304 305 304 305 306 306 305 304 304 304 305 306 305 305 308 306 305 305 305 305
302 303 304 303 302 301 301 300 302 301 300 301 302 303 302 303 303 303 304 304 304 305 306 307 305 305 304 303 303 305 306 306 305 305 305 305 304 304
303 304 303 302 301 300 300 300 302 301 299 300 300 302 302 303 305 304 303 304 304 306 305 305 306 306 304 304 302 303 304 304 304 303 303 304 304 303
303 303 302 301 300 299 299 300 301 301 299 300 300 301 303 302 304 305 304 304 303 304 305 304 304 304 304 303 301 300 304 304 303 303 304 303 303 302
302 302 301 300 300 299 299 299 301 301 300 301 300 300 302 303 303 305 304 303 303 303 304 303 303 302 302 302 301 300 300 302 302 303 305 305 304 302
300 300 300 299 299 298 298 299 301 302 301 301 299 298 301 302 304 306 305 305 303 303 303 303 303 304 303 302 301 300 300 300 300 301 302 302 302 303
298 298 298 298 298 298 298 299 300 302 301 300 299 298 299 301 302 306 305 305 303 303 302 302 301 301 300 300 300 300 299 299 299 299 299 300 301 301
Wind_Speed
5 9 12 13 14 16 16 14 7 1 1 4 4 11 4 3 6 8 8 9 10 10 11 12 12 12 12 12 13 18 23 24 25 24 26 23 31 31
13 14 16 13 12 11 9 7 3 2 1 1 4 6 6 6 8 9 9 9 11 12 14 15 16 17 17 18 18 17 18 19 21 23 24 24 26 29
15 13 12 8 7 8 5 4 2 1 4 6 6 5 6 6 7 9 9 11 10 14 15 17 18 19 20 21 22 23 24 23 23 23 23 22 25 27
12 11 7 4 4 5 5 4 2 2 6 8 5 4 3 4 5 7 7 8 11 14 16 18 20 21 22 21 22 24 26 28 29 28 26 24 24 24
11 9 7 6 5 5 5 4 3 2 3 6 7 5 6 7 9 10 9 11 11 14 15 16 17 18 19 20 22 22 23 28 31 31 30 27 25 24
12 12 12 11 9 6 5 5 4 4 4 5 6 8 8 9 10 12 14 14 16 17 17 17 17 16 16 19 22 25 23 20 24 29 32 29 26 25
15 14 15 14 14 13 10 10 10 9 9 9 9 9 11 12 15 14 14 16 16 16 15 15 13 14 17 15 16 19 22 26 24 21 29 30 29 25
14 13 12 14 15 16 14 12 11 10 9 10 10 12 13 14 14 14 17 17 14 15 12 19 18 16 15 12 11 14 16 19 24 27 25 30 27 23
15 12 10 12 13 12 13 14 13 13 12 9 11 12 14 15 16 17 17 18 20 21 18 18 16 16 14 11 13 15 16 17 19 26 27 23 26 22
16 15 14 14 15 12 11 11 11 11 13 12 12 15 15 16 16 18 19 18 19 19 15 12 14 15 14 10 13 13 12 13 14 17 20 21 23 21
14 16 14 14 16 15 13 14 15 17 19 20 20 16 14 14 13 13 17 18 18 18 15 15 18 18 16 13 6 5 7 9 7 8 9 10 14 16
12 12 15 14 13 14 13 14 16 20 20 18 16 15 13 14 15 12 17 18 19 17 13 9 14 11 10 6 4 3 5 8 8 7 5 7 10 8
9 10 11 12 11 11 12 13 16 20 16 16 16 16 15 16 16 17 16 16 18 20 20 17 20 18 12 14 10 8 11 8 6 8 7 6 9 11
5 6 6 9 11 13 12 13 18 15 14 14 16 18 18 19 19 19 20 20 19 20 22 19 14 16 16 14 13 9 10 8 7 6 6 6 5 6
2 2 4 6 11 12 13 17 15 14 14 14 15 17 17 20 24 25 23 24 20 19 20 18 17 18 17 14 14 16 13 10 8 7 7 5 4 3
3 3 3 5 10 13 14 15 13 13 14 14 16 18 18 22 24 24 23 23 19 15 11 12 13 15 15 14 14 16 14 7 4 7 8 6 4 3
4 3 5 8 11 14 15 14 13 15 15 14 15 18 19 23 22 24 22 21 15 13 12 5 5 7 10 10 10 11 11 13 9 11 9 5 4 2
3 3 6 9 12 14 14 14 13 15 15 14 14 17 19 21 23 24 23 23 18 19 18 8 2 3 6 6 6 6 8 9 8 7 5 5 3 2
3 4 6 8 11 12 14 13 13 14 15 13 14 17 17 18 20 21 21 19 19 16 19 19 8 8 3 3 8 12 2 6 8 7 4 2 1 1
4 5 6 8 10 13 13 14 13 13 16 14 16 16 16 17 18 20 19 18 17 14 15 19 15 8 4 2 3 16 8 8 6 5 2 0 1 1
6 7 7 8 10 12 13 13 12 13 15 14 17 15 15 15 18 17 16 17 15 14 13 13 8 10 10 6 7 12 15 10 8 4 3 1 2 2
7 8 8 9 11 12 13 13 13 13 14 14 15 16 14 14 15 16 17 17 15 12 11 10 9 7 8 8 9 7 11 17 17 15 13 9 3 3
7 8 8 10 11 11 12 12 13 13 14 14 15 15 15 18 15 14 16 15 15 12 11 12 12 12 11 13 13 12 10 12 16 20 20 16 14 15
Wind_Direction
62 97 94 90 82 69 66 69 73 90 91 245 248 232 258 326 322 326 322 323 321 311 302 292 287 285 280 269 254 244 245 250 254 252 252 248 243 237
97 101 93 90 85 83 93 101 141 153 292 201 255 250 279 301 318 325 320 321 307 303 300 295 291 282 274 267 264 257 247 242 245 248 248 249 251 252
95 87 83 85 88 101 104 123 140 252 261 253 262 274 289 310 312 309 310 314 311 312 309 301 294 288 281 270 265 260 253 249 248 248 249 246 245 246
87 88 73 56 48 56 57 33 331 275 280 274 268 267 290 318 310 302 310 300 306 307 310 305 298 296 286 280 275 268 266 256 252 248 248 243 246 248
70 66 55 46 40 30 23 2 352 321 270 281 305 310 306 310 314 311 314 310 309 306 307 298 301 293 290 281 273 272 273 271 266 254 249 246 242 246
62 55 47 40 30 29 46 43 29 359 357 330 315 314 305 310 309 306 308 307 307 306 300 294 289 284 289 290 283 273 269 276 272 255 245 240 243 245
54 57 57 60 57 52 38 26 12 353 341 335 326 310 312 315 318 313 298 305 306 311 312 308 296 289 292 290 291 283 272 264 264 278 243 234 234 241
53 53 52 52 44 44 44 41 33 19 3 346 331 326 319 314 307 310 308 308 305 309 304 306 301 290 285 266 273 295 281 266 259 263 259 238 231 236
45 39 35 30 28 29 27 30 27 25 19 357 334 325 312 315 310 302 297 296 294 297 295 295 301 285 284 275 282 300 292 279 264 247 250 245 226 230
49 49 49 42 33 28 20 17 14 8 357 343 325 315 308 305 300 294 293 294 292 290 287 274 290 291 292 284 291 310 307 292 282 252 243 246 228 231
56 52 50 44 37 36 29 17 5 356 346 339 333 325 314 305 306 300 291 297 294 296 294 277 287 286 289 279 276 359 350 351 339 277 247 228 224 225
50 47 36 32 23 17 15 8 358 347 339 337 338 333 325 313 308 289 291 286 291 294 298 299 286 300 294 268 237 322 317 325 331 326 291 239 233 220
47 46 38 29 19 10 11 1 349 340 340 339 341 340 333 328 323 316 309 293 286 280 286 287 283 278 272 279 282 293 302 310 293 305 303 255 234 219
30 37 28 27 18 10 6 349 348 354 349 349 351 347 335 329 328 324 311 300 292 278 283 279 271 272 269 267 276 287 284 293 281 266 251 270 280 261
310 324 346 359 7 2 356 356 359 353 347 343 344 339 333 332 327 328 327 320 310 291 286 275 257 260 260 261 267 272 281 278 285 268 255 246 247 239
323 317 317 345 3 359 355 354 355 351 342 339 337 337 335 335 333 339 330 331 322 315 310 288 255 247 250 257 257 268 270 260 270 264 245 240 223 220
331 348 352 357 353 353 351 354 354 352 351 348 344 346 348 345 343 351 346 336 330 318 322 320 293 253 244 267 272 265 259 260 255 265 206 207 194 226
12 20 5 357 360 356 354 353 355 352 348 345 344 348 348 345 345 351 354 354 355 7 21 347 304 208 158 67 17 300 281 262 245 198 198 205 189 292
81 21 9 4 360 357 353 351 348 346 349 345 345 347 350 348 355 360 357 358 359 12 19 27 36 103 87 33 18 28 25 134 134 127 152 176 172 229
26 10 3 357 354 352 348 345 345 344 352 351 350 350 347 348 346 360 1 360 360 5 22 30 44 55 75 63 56 40 68 103 86 83 96 91 168 257
7 356 351 349 349 346 343 344 345 344 345 344 350 350 349 347 348 354 6 5 1 9 14 14 50 87 92 75 76 58 61 66 69 36 9 36 350 331
359 352 348 347 347 345 345 345 347 348 346 349 348 352 352 349 345 350 7 9 9 13 25 37 42 52 67 74 56 62 64 71 70 66 63 50 2 10
356 355 348 346 347 348 349 348 345 347 347 348 346 345 346 352 349 345 11 16 18 21 33 48 57 68 71 82 61 60 66 71 67 66 62 65 69 70